Location: Banff
(51.1667°N, 115.5667°W)
Time: 15:49:14
(UTC+00:00)

Altair - Pass Details

Date: 27 November 2020
Orbit: 1501 x 1682 km, 47.2° (Epoch: 15 January)

Event Time Altitude Azimuth Distance (km) Brightness Sun altitude
Rises 03:17:36 0° 195° (SSW) 4,718 10.2 -33.1°
Reaches altitude 10° 03:21:28 10° 182° (S) 3,711 9.4 -33.7°
Enters shadow 03:23:07 15° 174° (S) 3,347 9.1 -34.0°
